THAICOM 4

Last updated on Thu Oct 30 2025 00:02:47 GMT+0000 (Coordinated Universal Time)

1 28786U 05028A 25302.50922295 -.00000352 00000+0 00000+0 0 9991 2 28786 0.0715 83.7581 0002552 139.3439 117.8253 1.00270852 49931
UTC large
Height (km)
Speed (km/s)
/
Latitude / Longitude
Inclination (degrees)
Orbital Period (minutes)
Azimuth
Elevation
Range (km)
Doppler Factor

Next 0 passes for location: London (51.5072 / 0.1276)

Sorry there are no passes over London.